When you browse on this site, cookies collect data to enhance your experience and personalize the content and advertising you see.
Visit our Privacy Policy to learn more. By continuing to use the site, you agree to this use of cookies and data.
  • In Hungary
  • List of Countries
  • For 7 days
  • Water Temperature
  • Satellite Maps
  • Weather Map
  • News
  • Weather Widgets
  • user-avatar
    Login

    Hourly Weather Sant Pere de Ribes

    Today, 18 January, Friday

    Time Temperature Precipitation Wind Pressure Humidity
    00:00 +10°C° 0 mm 1 mps 751 mmHg 83%
    01:00 +9°C° 0.4 mm 2 mps 751 mmHg 81%
    02:00 +9°C° 0.4 mm 2 mps 751 mmHg 80%
    03:00 +9°C° 0.4 mm 3 mps 751 mmHg 78%
    04:00 +9°C° 0.1 mm 3 mps 751 mmHg 77%
    05:00 +8°C° 0.1 mm 2 mps 751 mmHg 75%
    06:00 +7°C° 0 mm 2 mps 751 mmHg 69%
    07:00 +7°C° 0 mm 2 mps 751 mmHg 68%
    08:00 +8°C° 0 mm 2 mps 751 mmHg 67%
    09:00 +9°C° 0 mm 1 mps 751 mmHg 66%
    10:00 +9°C° 0 mm 1 mps 751 mmHg 64%
    11:00 +9°C° 0 mm 2 mps 751 mmHg 63%
    12:00 +10°C° 0 mm 2 mps 751 mmHg 62%
    13:00 +10°C° 0 mm 2 mps 750 mmHg 59%
    14:00 +10°C° 0 mm 2 mps 750 mmHg 57%
    15:00 +10°C° 0 mm 3 mps 750 mmHg 55%
    16:00 +10°C° 0 mm 3 mps 750 mmHg 55%
    17:00 +10°C° 0 mm 3 mps 750 mmHg 55%
    18:00 +9°C° 0 mm 3 mps 750 mmHg 56%
    19:00 +9°C° 0 mm 3 mps 750 mmHg 56%
    20:00 +9°C° 0 mm 3 mps 750 mmHg 57%
    21:00 +9°C° 0 mm 3 mps 750 mmHg 58%
    22:00 +8°C° 0 mm 2 mps 750 mmHg 60%
    23:00 +8°C° 0 mm 2 mps 750 mmHg 61%

    Tomorrow, 19 January, Saturday

    Time Temperature Precipitation Wind Pressure Humidity
    00:00 +8°C° 0 mm 2 mps 750 mmHg 62%
    01:00 +8°C° 0 mm 2 mps 749 mmHg 63%
    02:00 +7°C° 0 mm 2 mps 749 mmHg 63%
    03:00 +7°C° 0 mm 2 mps 749 mmHg 64%
    04:00 +7°C° 0 mm 2 mps 749 mmHg 65%
    05:00 +7°C° 0 mm 2 mps 749 mmHg 66%
    06:00 +7°C° 0 mm 2 mps 749 mmHg 67%
    07:00 +7°C° 0 mm 2 mps 749 mmHg 66%
    08:00 +7°C° 0 mm 2 mps 749 mmHg 64%
    09:00 +7°C° 0 mm 2 mps 749 mmHg 63%
    10:00 +9°C° 0 mm 1 mps 749 mmHg 60%
    11:00 +10°C° 0 mm 1 mps 749 mmHg 57%
    12:00 +10°C° 0 mm 0 mps 749 mmHg 53%
    13:00 +11°C° 0 mm 1 mps 748 mmHg 53%
    14:00 +11°C° 0 mm 1 mps 748 mmHg 53%
    15:00 +12°C° 0 mm 2 mps 747 mmHg 53%
    16:00 +10°C° 0 mm 2 mps 747 mmHg 56%
    17:00 +10°C° 0 mm 2 mps 747 mmHg 59%
    18:00 +9°C° 0 mm 2 mps 747 mmHg 62%
    19:00 +9°C° 0 mm 2 mps 747 mmHg 63%
    20:00 +9°C° 0 mm 2 mps 747 mmHg 63%
    21:00 +9°C° 0 mm 2 mps 746 mmHg 64%
    22:00 +9°C° 0.1 mm 2 mps 746 mmHg 68%
    23:00 +9°C° 0.1 mm 2 mps 746 mmHg 71%

    Day after tomorrow, 20 January, Sunday

    Time Temperature Precipitation Wind Pressure Humidity
    00:00 +9°C° 0.1 mm 2 mps 745 mmHg 75%
    01:00 +9°C° 0.3 mm 2 mps 745 mmHg 76%
    02:00 +9°C° 0.3 mm 2 mps 745 mmHg 78%
    03:00 +9°C° 0.3 mm 2 mps 745 mmHg 80%
    04:00 +9°C° 0.3 mm 2 mps 744 mmHg 80%
    05:00 +9°C° 0.3 mm 3 mps 744 mmHg 80%
    06:00 +9°C° 0.3 mm 3 mps 744 mmHg 80%
    07:00 +8°C° 0 mm 4 mps 744 mmHg 78%
    08:00 +8°C° 0 mm 4 mps 745 mmHg 76%
    09:00 +8°C° 0 mm 4 mps 745 mmHg 74%
    10:00 +8°C° 0.3 mm 4 mps 745 mmHg 73%
    11:00 +8°C° 0.3 mm 5 mps 745 mmHg 71%
    12:00 +9°C° 0.3 mm 5 mps 745 mmHg 70%
    13:00 +10°C° 0.1 mm 4 mps 745 mmHg 66%
    14:00 +11°C° 0.1 mm 4 mps 745 mmHg 62%
    15:00 +11°C° 0.1 mm 3 mps 745 mmHg 57%
    16:00 +11°C° 0 mm 3 mps 746 mmHg 60%
    17:00 +10°C° 0 mm 3 mps 747 mmHg 62%
    18:00 +10°C° 0 mm 3 mps 747 mmHg 64%
    19:00 +9°C° 0 mm 3 mps 748 mmHg 65%
    20:00 +9°C° 0 mm 3 mps 748 mmHg 66%
    21:00 +9°C° 0 mm 3 mps 749 mmHg 67%
    22:00 +8°C° 0 mm 2 mps 749 mmHg 68%
    23:00 +8°C° 0 mm 2 mps 749 mmHg 69%

    21 January, Monday

    Time Temperature Precipitation Wind Pressure Humidity
    00:00 +9°C° 0 mm 1 mps 749 mmHg 70%
    01:00 +9°C° 0 mm 1 mps 749 mmHg 71%
    02:00 +8°C° 0 mm 1 mps 749 mmHg 73%
    03:00 +8°C° 0 mm 1 mps 750 mmHg 74%
    04:00 +8°C° 0 mm 1 mps 750 mmHg 75%
    05:00 +8°C° 0 mm 1 mps 750 mmHg 75%
    06:00 +8°C° 0 mm 1 mps 750 mmHg 76%
    07:00 +8°C° 0 mm 1 mps 751 mmHg 74%
    08:00 +7°C° 0 mm 2 mps 751 mmHg 72%
    09:00 +8°C° 0 mm 2 mps 751 mmHg 69%
    10:00 +10°C° 0.1 mm 1 mps 752 mmHg 66%
    11:00 +11°C° 0.1 mm 1 mps 752 mmHg 63%
    12:00 +12°C° 0.1 mm 1 mps 752 mmHg 60%
    13:00 +12°C° 0 mm 1 mps 752 mmHg 60%
    14:00 +12°C° 0 mm 2 mps 752 mmHg 60%
    15:00 +11°C° 0 mm 3 mps 752 mmHg 60%
    16:00 +10°C° 0.3 mm 3 mps 752 mmHg 65%
    17:00 +10°C° 0.3 mm 3 mps 752 mmHg 69%
    18:00 +9°C° 0.3 mm 3 mps 753 mmHg 73%
    19:00 +9°C° 0.4 mm 3 mps 753 mmHg 73%
    20:00 +9°C° 0.4 mm 3 mps 754 mmHg 73%
    21:00 +9°C° 0.4 mm 3 mps 754 mmHg 73%
    22:00 +8°C° 0.1 mm 3 mps 754 mmHg 70%
    23:00 +8°C° 0.1 mm 3 mps 754 mmHg 66%

    22 January, Tuesday

    Time Temperature Precipitation Wind Pressure Humidity
    00:00 +7°C° 0.1 mm 3 mps 755 mmHg 63%
    01:00 +7°C° 0 mm 3 mps 754 mmHg 59%
    02:00 +5°C° 0 mm 3 mps 754 mmHg 56%
    03:00 +5°C° 0 mm 4 mps 754 mmHg 52%
    04:00 +4°C° 0 mm 4 mps 754 mmHg 53%
    05:00 +4°C° 0 mm 4 mps 754 mmHg 54%
    06:00 +3°C° 0 mm 4 mps 753 mmHg 55%
    07:00 +4°C° 0 mm 3 mps 753 mmHg 55%
    08:00 +4°C° 0 mm 3 mps 753 mmHg 55%
    09:00 +4°C° 0 mm 3 mps 753 mmHg 55%
    10:00 +5°C° 0 mm 3 mps 752 mmHg 49%
    11:00 +8°C° 0 mm 3 mps 752 mmHg 44%
    12:00 +9°C° 0 mm 3 mps 751 mmHg 38%
    13:00 +9°C° 0 mm 3 mps 750 mmHg 37%
    14:00 +10°C° 0 mm 3 mps 749 mmHg 35%
    15:00 +10°C° 0 mm 4 mps 748 mmHg 33%
    16:00 +9°C° 0 mm 5 mps 747 mmHg 40%
    17:00 +9°C° 0 mm 5 mps 747 mmHg 48%
    18:00 +9°C° 0 mm 6 mps 746 mmHg 55%
    19:00 +9°C° 0 mm 7 mps 746 mmHg 57%
    20:00 +8°C° 0 mm 9 mps 745 mmHg 59%
    21:00 +8°C° 0 mm 10 mps 745 mmHg 61%
    22:00 +7°C° 0 mm 10 mps 744 mmHg 62%
    23:00 +7°C° 0 mm 10 mps 744 mmHg 64%

    23 January, Wednesday

    Time Temperature Precipitation Wind Pressure Humidity
    00:00 +7°C° 0 mm 10 mps 744 mmHg 65%
    01:00 +6°C° 0 mm 9 mps 743 mmHg 64%
    02:00 +6°C° 0 mm 8 mps 743 mmHg 64%
    03:00 +6°C° 0 mm 7 mps 743 mmHg 63%
    04:00 +6°C° 0 mm 7 mps 742 mmHg 63%
    05:00 +6°C° 0 mm 8 mps 742 mmHg 63%
    06:00 +6°C° 0 mm 8 mps 741 mmHg 62%
    07:00 +7°C° 0 mm 10 mps 740 mmHg 61%
    08:00 +7°C° 0 mm 12 mps 740 mmHg 60%
    09:00 +8°C° 0 mm 14 mps 739 mmHg 59%
    10:00 +10°C° 0 mm 15 mps 738 mmHg 54%
    11:00 +11°C° 0 mm 16 mps 737 mmHg 50%
    12:00 +13°C° 0 mm 17 mps 736 mmHg 45%
    13:00 +14°C° 0 mm 16 mps 735 mmHg 43%
    14:00 +14°C° 0 mm 16 mps 734 mmHg 41%
    15:00 +15°C° 0 mm 15 mps 734 mmHg 39%
    16:00 +14°C° 0 mm 15 mps 733 mmHg 40%
    17:00 +13°C° 0 mm 15 mps 733 mmHg 42%
    18:00 +13°C° 0 mm 15 mps 732 mmHg 43%
    19:00 +13°C° 0 mm 15 mps 732 mmHg 44%
    20:00 +12°C° 0 mm 14 mps 732 mmHg 45%
    21:00 +12°C° 0 mm 13 mps 732 mmHg 46%
    22:00 +11°C° 0.1 mm 10 mps 732 mmHg 50%
    23:00 +10°C° 0.1 mm 8 mps 732 mmHg 54%
    Show more